[[{"header":{"parameterUnit":"m.s-1","parameterCategory":1,"la1":30.2991,"la2":30.254,"lo1":-89.0895,"lo2":-89.0444,"dy":0.0017,"dx":0.0017,"nx":28,"ny":28,"refTime":"2025-08-16T03:00:00:Z","depth":0,"parameterNumber":2,"parameterNumberName":"U-component_of_WINDS"},"data":[0,0,0,0,0,0,0,0,0,0,0,0,0,0,0,0,0,0,0,0,0,0,0,0,0,0,0,0,0,0,0,0,0,0,0,0,0,0,0,0,0,0,0,0,0,0,0,0,0,0,0,0,0,0,0,0,0,0,0.9589,0.9591,0,0.9783,0.9785,0.9787,0.9835,0.9834,0.9833,0.9832,1.0036,1.0043,1.0049,0,0,0,0,0,0,0,0,0,0,0,0,0,0.9268,0.9273,0.9589,0.9591,0.9594,0.9782,0.9785,0.9788,0.9836,0.9834,0.9833,0.9831,1.0034,1.0042,1.005,0,0,0,0,0,0,0,0,0,0,0,0,0,0.9429,0.9275,0.9589,0.964,0.9647,0.9782,0.9785,0.9789,0.9836,0.9834,0.9832,0.983,1.0031,1.0041,1.0051,1.015,0,0,1.0081,1.0085,0,0,0,0,0,0,0,0,0.942,0.9441,0.963,0.9637,0.9645,0.9783,0.9747,0.991,0.9836,0.9764,0.9832,0.983,0.9954,0.997,1.0011,1.016,1.0168,1.0082,1.0088,1.0092,1.0095,0,0,0,0,0,0,0,0.9408,0.9433,0.9666,0.9633,0.9642,0.9656,0.9677,0.9778,0.9868,0.9771,0.9774,0.9796,0.9957,1.0001,1.0016,1.0171,1.0082,1.0091,1.0097,1.0101,1.0414,1.0416,0,0,0,0,0,0,0.9387,0.9423,0.966,0.9672,0.9525,0.9663,0.9687,0.9741,0.9867,0.9884,0.9798,0.9798,0.9985,1.0004,1.0023,1.0149,1.0092,1.0102,1.0107,1.0412,1.0415,1.0417,0,0,0,0,0,0,0.938,0.9408,0.9652,0.9549,0.9581,0.9671,0.9731,0.9745,0.9789,0.9887,0.9904,0.9825,0.9984,1.0009,1.0118,1.0157,1.0106,1.0115,1.0409,1.0413,1.0416,1.04,0,0,0,0,0,0,0.9371,0.9405,0.9442,0.9549,0.9586,0.9741,0.9733,0.9751,0.9805,0.9807,0.9917,0.9934,0.9985,1.0103,1.0128,1.017,1.0123,1.0406,1.0411,1.0415,1.0398,1.0403,1.0407,0,0,0,0,0,0.9359,0.9431,0.9443,0.9472,0.9633,0.9743,0.9765,0.982,0.9808,0.9847,0.9911,0.9931,1.0148,1.0114,1.0142,1.0187,1.0404,1.0409,1.0415,1.0396,1.0402,1.0407,0,0,0,0,0,0,0.9327,0.9445,0.9461,0.9569,0.9646,0.9751,0.9802,0.9825,0.9908,0.9906,0.9973,0.9998,1.0103,1.0156,1.0116,1.0291,1.0276,1.0288,1.0252,1.0259,1.0264,1.0249,1.0131,0,0,0,0,0,0.9332,0.941,0.951,0.9596,0.9633,0.9711,0.9761,0.9797,0.988,0.9913,0.9984,1.0066,1.0153,1.0209,1.0295,1.0406,1.0432,1.0451,1.0456,1.0459,1.0468,1.0533,1.0544,1.0435,1.0435,1.0435,0,0,0.9345,0.9419,0.9464,0.9591,0.9655,0.9736,0.9738,0.9823,0.9884,0.9927,1.0033,1.0089,1.0185,1.0296,1.0348,1.0343,1.0504,1.0466,1.0468,1.0476,1.054,1.055,1.0559,1.0438,1.0438,1.0437,0,0,0.9408,0.9471,0.955,0.9614,0.971,0.9761,0.978,0.9883,0.9921,1.0029,1.0063,1.0138,1.0286,1.0354,1.0407,1.0498,1.0521,1.0525,1.0549,1.0612,1.062,1.0628,1.0662,1.0673,1.0533,1.0533,1.0533,0,0.9411,0.9532,0.9588,0.9672,0.9728,0.9768,0.985,0.991,1.003,1.0069,1.0061,1.0249,1.0316,1.0444,1.0467,1.0508,1.0534,1.0512,1.0614,1.0623,1.0631,1.0664,1.0676,1.0533,1.0533,1.0533,1.0533,0,0.9533,0.9617,0.9669,0.9782,0.9844,0.9927,0.9997,1.0054,1.0085,1.0138,1.0249,1.0331,1.0435,1.0468,1.0499,1.0602,1.0596,1.06,1.0587,1.064,1.0673,1.0686,1.0533,1.0533,1.0533,1.0533,0,0,0.958,0.9724,0.9742,0.9795,0.9905,0.9972,1.0057,1.0157,1.0205,1.0287,1.0362,1.0487,1.0492,1.0553,1.0593,1.0648,1.0717,1.0647,1.065,1.0657,1.0836,1.0832,1.0845,1.0732,1.0735,1.0737,1.0828,0,0.9658,0.981,0.9863,0.9989,1.0069,1.011,1.0185,1.0261,1.0314,1.0391,1.045,1.0538,1.0538,1.0575,1.0631,1.0696,1.0753,1.069,1.0804,1.0808,1.0779,1.0862,1.0858,1.094,1.0841,1.0843,1.0845,0,0.9768,0.985,0.9984,1.0085,1.012,1.0186,1.0283,1.0355,1.0445,1.0479,1.0547,1.0584,1.0678,1.0658,1.079,1.0746,1.0796,1.0836,1.084,1.0853,1.0829,1.0878,1.0968,1.098,1.0865,1.0864,1.0862,0,0.9791,0.9935,1.0034,1.0077,1.0198,1.0244,1.0296,1.0383,1.044,1.0526,1.0564,1.066,1.0713,1.0787,1.085,1.083,1.0977,1.0962,1.101,1.1008,1.1039,1.1036,1.1138,1.107,1.107,1.107,1.1069,0,0.9872,0.9952,1.0045,1.0106,1.0199,1.0261,1.0351,1.0407,1.0484,1.0559,1.0601,1.067,1.0748,1.0828,1.0878,1.098,1.1004,1.1036,1.1048,1.1033,1.1028,1.1067,1.1063,1.1073,1.1072,1.1072,1.1071,0,0.9912,0.9978,1.0088,1.0193,1.0222,1.0285,1.0377,1.0439,1.0493,1.0587,1.0613,1.0699,1.0796,1.0866,1.0991,1.1025,1.1135,1.1147,1.1104,1.111,1.1154,1.115,1.1285,1.1306,1.1223,1.1224,1.1224,0,0.996,1.0022,1.0134,1.0186,1.0238,1.0321,1.038,1.0445,1.0504,1.0611,1.0661,1.076,1.0843,1.0997,1.1072,1.1169,1.1184,1.1225,1.1199,1.1182,1.1186,1.1181,1.1189,1.1229,1.1229,1.123,1.123,0,1.0037,1.0067,1.0148,1.0242,1.031,1.0387,1.0465,1.0506,1.0585,1.065,1.0749,1.0813,1.0941,1.104,1.1144,1.1201,1.123,1.1238,1.1254,1.1238,1.1211,1.1227,1.1115,1.1234,1.1234,1.1234,1.1233,1.1233,1.0083,1.0141,1.0229,1.0319,1.0385,1.0457,1.0521,1.0583,1.0666,1.0773,1.0808,1.091,1.1001,1.1144,1.1202,1.1285,1.1284,1.1307,1.1313,1.1318,1.1318,1.1198,1.1305,1.1305,1.1305,1.1305,1.1305,0,1.0164,1.0222,1.0304,1.0412,1.0483,1.0502,1.059,1.0649,1.0738,1.0819,1.09,1.1014,1.1111,1.1195,1.1295,1.1346,1.1362,1.1371,1.1368,1.1381,1.1313,1.1289,1.1356,1.1356,1.1356,1.1356,1.1356,1.1356,1.0214,1.0313,1.0354,1.0488,1.0547,1.0646,1.0695,1.0763,1.0828,1.0953,1.1033,1.1086,1.1169,1.1277,1.1367,1.139,1.1425,1.1431,1.1456,1.1391,1.1385,1.138,1.1357,1.1438,1.1438,1.1518,1.1518,1.1519]},{"header":{"parameterUnit":"m.s-1","parameterCategory":1,"la1":30.2991,"la2":30.254,"lo1":-89.0895,"lo2":-89.0444,"dy":0.0017,"dx":0.0017,"nx":28,"ny":28,"refTime":"2025-08-16T03:00:00:Z","depth":0,"parameterNumber":3,"parameterNumberName":"V-component_of_WINDS"},"data":[0,0,0,0,0,0,0,0,0,0,0,0,0,0,0,0,0,0,0,0,0,0,0,0,0,0,0,0,0,0,0,0,0,0,0,0,0,0,0,0,0,0,0,0,0,0,0,0,0,0,0,0,0,0,0,0,0,0,-0.6756,-0.6755,0,-0.6693,-0.6692,-0.6692,-0.6732,-0.6734,-0.6736,-0.6738,-0.6662,-0.6659,-0.6655,0,0,0,0,0,0,0,0,0,0,0,0,0,-0.6901,-0.6898,-0.6756,-0.6755,-0.6754,-0.6693,-0.6692,-0.6691,-0.6732,-0.6734,-0.6737,-0.6739,-0.6664,-0.6659,-0.6655,0,0,0,0,0,0,0,0,0,0,0,0,0,-0.6838,-0.6897,-0.6756,-0.6767,-0.6768,-0.6693,-0.6692,-0.6691,-0.6731,-0.6734,-0.6737,-0.674,-0.6665,-0.666,-0.6654,-0.6561,0,0,-0.6637,-0.6634,0,0,0,0,0,0,0,0,-0.6841,-0.6832,-0.6766,-0.6766,-0.6767,-0.6724,-0.6716,-0.6647,-0.6731,-0.6745,-0.6738,-0.6741,-0.668,-0.6673,-0.6655,-0.6558,-0.6555,-0.6636,-0.6633,-0.663,-0.6629,0,0,0,0,0,0,0,-0.6846,-0.6835,-0.6731,-0.6765,-0.6765,-0.6773,-0.6767,-0.6703,-0.6696,-0.6744,-0.6747,-0.6739,-0.668,-0.666,-0.6653,-0.6554,-0.6636,-0.6631,-0.6628,-0.6626,-0.6379,-0.6376,0,0,0,0,0,0,-0.685,-0.6839,-0.6733,-0.6729,-0.6812,-0.6768,-0.6761,-0.6734,-0.6697,-0.6695,-0.6737,-0.6742,-0.6668,-0.666,-0.6651,-0.654,-0.663,-0.6625,-0.6622,-0.6382,-0.6378,-0.6375,0,0,0,0,0,0,-0.6853,-0.6841,-0.6735,-0.6785,-0.6772,-0.6762,-0.6732,-0.6732,-0.6712,-0.6693,-0.669,-0.6718,-0.667,-0.6659,-0.6584,-0.6538,-0.6622,-0.6617,-0.6386,-0.6381,-0.6377,-0.6318,0,0,0,0,0,0,-0.6857,-0.6842,-0.6808,-0.6784,-0.6769,-0.6672,-0.6729,-0.6728,-0.6703,-0.6708,-0.6674,-0.6671,-0.6672,-0.6593,-0.6579,-0.6532,-0.6613,-0.639,-0.6384,-0.6378,-0.6324,-0.6312,-0.6302,0,0,0,0,0,-0.6863,-0.6791,-0.6806,-0.6793,-0.6728,-0.667,-0.6661,-0.6666,-0.6699,-0.6664,-0.6652,-0.6672,-0.6546,-0.6585,-0.6569,-0.652,-0.6393,-0.6385,-0.6379,-0.6329,-0.6315,-0.6302,0,0,0,0,0,0,-0.6805,-0.6788,-0.6804,-0.6724,-0.6699,-0.6677,-0.6632,-0.665,-0.6612,-0.6618,-0.6623,-0.6615,-0.6537,-0.6521,-0.6565,-0.6429,-0.6474,-0.6464,-0.6442,-0.6428,-0.6417,-0.6421,-0.6608,0,0,0,0,0,-0.6785,-0.6742,-0.6728,-0.6658,-0.6645,-0.6641,-0.6616,-0.6623,-0.6595,-0.6583,-0.6566,-0.6535,-0.6489,-0.6458,-0.6414,-0.6324,-0.6316,-0.6282,-0.6271,-0.6262,-0.6252,-0.6203,-0.6187,-0.6352,-0.6352,-0.6352,0,0,-0.6738,-0.6724,-0.6696,-0.6646,-0.6628,-0.6581,-0.6631,-0.6579,-0.6544,-0.6574,-0.6504,-0.6491,-0.6457,-0.6374,-0.6337,-0.6358,-0.6206,-0.6253,-0.6246,-0.624,-0.6194,-0.6178,-0.6165,-0.6347,-0.6348,-0.6349,0,0,-0.6631,-0.6617,-0.6557,-0.6539,-0.6512,-0.651,-0.6496,-0.6473,-0.6466,-0.6397,-0.6419,-0.6376,-0.6296,-0.6272,-0.6248,-0.6136,-0.6153,-0.6122,-0.6062,-0.6014,-0.6001,-0.599,-0.5949,-0.5934,-0.6112,-0.6112,-0.6112,0,-0.6576,-0.651,-0.6523,-0.6471,-0.6448,-0.6479,-0.6418,-0.6398,-0.6356,-0.6338,-0.6364,-0.6267,-0.6246,-0.6158,-0.6132,-0.6112,-0.6095,-0.6124,-0.6003,-0.5991,-0.5981,-0.5942,-0.5926,-0.6108,-0.6109,-0.6109,-0.611,0,-0.6444,-0.6398,-0.6353,-0.6317,-0.6289,-0.6232,-0.6234,-0.6204,-0.6215,-0.621,-0.6139,-0.6116,-0.6069,-0.6049,-0.6057,-0.5963,-0.5977,-0.6003,-0.6048,-0.5961,-0.5925,-0.591,-0.6103,-0.6105,-0.6106,-0.6107,0,0,-0.6294,-0.627,-0.6253,-0.6238,-0.6212,-0.6175,-0.612,-0.6078,-0.6052,-0.6022,-0.5975,-0.5909,-0.5934,-0.5908,-0.5913,-0.5872,-0.5784,-0.5903,-0.5902,-0.588,-0.5678,-0.5658,-0.564,-0.5796,-0.5794,-0.5791,-0.5681,0,-0.6184,-0.6092,-0.6104,-0.6014,-0.5971,-0.6001,-0.5953,-0.593,-0.5925,-0.5886,-0.5879,-0.5832,-0.5869,-0.5853,-0.5814,-0.5803,-0.5743,-0.5811,-0.5749,-0.5746,-0.5755,-0.5621,-0.5599,-0.5496,-0.5667,-0.5664,-0.5663,0,-0.6043,-0.6014,-0.5921,-0.5904,-0.5887,-0.5843,-0.5807,-0.577,-0.5745,-0.5744,-0.5718,-0.5731,-0.5674,-0.5723,-0.5642,-0.5688,-0.5664,-0.5655,-0.5651,-0.5643,-0.5697,-0.5608,-0.5463,-0.5447,-0.564,-0.5642,-0.5644,0,-0.5942,-0.588,-0.5817,-0.5803,-0.5781,-0.575,-0.5739,-0.5718,-0.5693,-0.566,-0.5644,-0.5604,-0.5581,-0.5548,-0.555,-0.5586,-0.5468,-0.5517,-0.5464,-0.5463,-0.5435,-0.5436,-0.5281,-0.5422,-0.5423,-0.5423,-0.5423,0,-0.5817,-0.5758,-0.5772,-0.5732,-0.5667,-0.5681,-0.5616,-0.5608,-0.559,-0.5547,-0.5571,-0.553,-0.5536,-0.5495,-0.5496,-0.5429,-0.5418,-0.5414,-0.5415,-0.5411,-0.5411,-0.5393,-0.5399,-0.5419,-0.542,-0.5421,-0.5421,0,-0.5692,-0.5699,-0.5631,-0.5619,-0.5615,-0.5567,-0.5555,-0.5517,-0.5516,-0.5462,-0.5451,-0.5447,-0.54,-0.54,-0.5345,-0.5346,-0.5263,-0.5273,-0.5273,-0.5274,-0.522,-0.5224,-0.5046,-0.5023,-0.5181,-0.5179,-0.5178,0,-0.561,-0.5567,-0.5552,-0.5528,-0.5516,-0.5476,-0.5452,-0.5465,-0.5438,-0.5409,-0.5374,-0.533,-0.5296,-0.5219,-0.5209,-0.5167,-0.5175,-0.5116,-0.5168,-0.5166,-0.5172,-0.5174,-0.5169,-0.5104,-0.5102,-0.5101,-0.51,0,-0.5465,-0.5472,-0.5438,-0.5407,-0.5379,-0.5353,-0.533,-0.5308,-0.5318,-0.5287,-0.5242,-0.5216,-0.5162,-0.5118,-0.5079,-0.5064,-0.5082,-0.5084,-0.5069,-0.5063,-0.5065,-0.5062,-0.5243,-0.5087,-0.5088,-0.5089,-0.509,-0.509,-0.5358,-0.5321,-0.5306,-0.5268,-0.5254,-0.5232,-0.5197,-0.5194,-0.5157,-0.5118,-0.5127,-0.5076,-0.5053,-0.5003,-0.4986,-0.4944,-0.4965,-0.4943,-0.4937,-0.4931,-0.4925,-0.5074,-0.4937,-0.4938,-0.4938,-0.4938,-0.4938,0,-0.5213,-0.5206,-0.5172,-0.5141,-0.5111,-0.5137,-0.5114,-0.5086,-0.5042,-0.5022,-0.4989,-0.4937,-0.4895,-0.4885,-0.4844,-0.4813,-0.482,-0.4801,-0.4802,-0.4798,-0.491,-0.4926,-0.4796,-0.4796,-0.4796,-0.4796,-0.4796,-0.4796,-0.5133,-0.5073,-0.5079,-0.5011,-0.5003,-0.4957,-0.4941,-0.4921,-0.4905,-0.4848,-0.4815,-0.481,-0.4793,-0.4752,-0.4714,-0.4712,-0.4695,-0.4672,-0.4673,-0.4776,-0.479,-0.4804,-0.482,-0.4669,-0.4669,-0.4565,-0.4564,-0.4564]}]]